Time,TemperatureF,DewpointF,PressureIn,WindDirection,WindDirectionDegrees,WindSpeedMPH,WindSpeedGustMPH,Humidity,HourlyPrecipIn,Conditions,Clouds,dailyrainin,SoftwareType,DateUTC
2013-07-30 00:01:00,58.3,55.4,30.17,WNW,298,0.0,0.0,90,0.00,,---,0.00,VWS V13.01,2013-07-30 04:01:00,
2013-07-30 00:06:00,58.1,55.2,30.17,WNW,298,0.0,0.0,90,0.00,,---,0.00,VWS V13.01,2013-07-30 04:06:00,
2013-07-30 00:11:00,58.0,55.4,30.17,WNW,298,0.0,0.0,91,0.00,,---,0.00,VWS V13.01,2013-07-30 04:11:00,
2013-07-30 00:16:00,57.9,55.3,30.17,WNW,298,0.0,0.0,91,0.00,,---,0.00,VWS V13.01,2013-07-30 04:16:00,
2013-07-30 00:21:00,57.7,55.1,30.18,WNW,298,0.0,0.0,91,0.00,,---,0.00,VWS V13.01,2013-07-30 04:21:00,
2013-07-30 00:26:00,57.5,54.9,30.17,WNW,298,0.0,0.0,91,0.00,,---,0.00,VWS V13.01,2013-07-30 04:26:00,
2013-07-30 00:31:00,57.3,54.7,30.18,WNW,298,0.0,0.0,91,0.00,,---,0.00,VWS V13.01,2013-07-30 04:31:00,
2013-07-30 00:36:00,57.2,54.6,30.17,WNW,298,0.0,0.0,91,0.00,,---,0.00,VWS V13.01,2013-07-30 04:36:00,
2013-07-30 00:41:00,57.1,54.8,30.18,WNW,298,0.0,0.0,92,0.00,,---,0.00,VWS V13.01,2013-07-30 04:41:00,
2013-07-30 00:47:00,56.9,54.6,30.18,WNW,298,0.0,0.0,92,0.00,,---,0.00,VWS V13.01,2013-07-30 04:47:00,
2013-07-30 00:52:00,56.7,54.4,30.18,WNW,298,0.0,0.0,92,0.00,,---,0.00,VWS V13.01,2013-07-30 04:52:00,
2013-07-30 00:57:00,56.6,54.3,30.18,WNW,298,0.0,0.0,92,0.00,,---,0.00,VWS V13.01,2013-07-30 04:57:00,
2013-07-30 01:01:00,56.5,54.5,30.18,WNW,298,0.0,0.0,93,0.00,,---,0.00,VWS V13.01,2013-07-30 05:01:00,
2013-07-30 01:07:00,56.4,54.4,30.18,WNW,298,0.0,0.0,93,0.00,,---,0.00,VWS V13.01,2013-07-30 05:07:00,
2013-07-30 01:12:00,56.3,54.0,30.19,WNW,298,0.0,0.0,92,0.00,,---,0.00,VWS V13.01,2013-07-30 05:12:00,
2013-07-30 01:17:00,56.2,53.9,30.19,WNW,298,0.0,0.0,92,0.00,,---,0.00,VWS V13.01,2013-07-30 05:17:00,
2013-07-30 01:22:00,56.0,53.7,30.19,WNW,298,0.0,0.0,92,0.00,,---,0.00,VWS V13.01,2013-07-30 05:22:00,
2013-07-30 01:27:00,55.9,53.9,30.19,WNW,298,0.0,0.0,93,0.00,,---,0.00,VWS V13.01,2013-07-30 05:27:00,
2013-07-30 01:32:00,55.9,53.9,30.19,WNW,298,0.0,0.0,93,0.00,,---,0.00,VWS V13.01,2013-07-30 05:32:00,
2013-07-30 01:37:00,55.9,53.9,30.19,WNW,298,0.0,0.0,93,0.00,,---,0.00,VWS V13.01,2013-07-30 05:37:00,
2013-07-30 01:42:00,55.9,53.9,30.19,WNW,298,0.0,0.0,93,0.00,,---,0.00,VWS V13.01,2013-07-30 05:42:00,
2013-07-30 01:47:00,55.7,53.7,30.19,WNW,298,0.0,0.0,93,0.00,,---,0.00,VWS V13.01,2013-07-30 05:47:00,
2013-07-30 01:52:00,55.6,53.6,30.19,WNW,298,0.0,0.0,93,0.00,,---,0.00,VWS V13.01,2013-07-30 05:52:00,
2013-07-30 01:57:00,55.6,53.9,30.19,WNW,298,0.0,1.0,94,0.00,,---,0.00,VWS V13.01,2013-07-30 05:57:00,
2013-07-30 02:02:00,55.6,53.9,30.19,WNW,298,0.0,0.0,94,0.00,,---,0.00,VWS V13.01,2013-07-30 06:02:00,
2013-07-30 02:07:00,55.6,53.9,30.19,WNW,298,0.0,0.0,94,0.00,,---,0.00,VWS V13.01,2013-07-30 06:07:00,
2013-07-30 02:12:00,55.4,53.7,30.19,WNW,298,0.0,0.0,94,0.00,,---,0.00,VWS V13.01,2013-07-30 06:12:00,
2013-07-30 02:17:00,55.4,53.7,30.19,WNW,298,0.0,0.0,94,0.00,,---,0.00,VWS V13.01,2013-07-30 06:17:00,
2013-07-30 02:22:00,55.3,53.6,30.19,WNW,298,0.0,2.0,94,0.00,,---,0.00,VWS V13.01,2013-07-30 06:22:00,
2013-07-30 02:27:00,55.2,53.5,30.18,WNW,298,0.0,2.0,94,0.00,,---,0.00,VWS V13.01,2013-07-30 06:27:00,
2013-07-30 02:32:00,55.1,53.4,30.18,WNW,298,0.0,0.0,94,0.00,,---,0.00,VWS V13.01,2013-07-30 06:32:00,
2013-07-30 02:37:00,55.1,53.4,30.18,WNW,298,0.0,0.0,94,0.00,,---,0.00,VWS V13.01,2013-07-30 06:37:00,
2013-07-30 02:42:00,55.1,53.4,30.18,WNW,298,0.0,0.0,94,0.00,,---,0.00,VWS V13.01,2013-07-30 06:42:00,
2013-07-30 02:47:00,55.2,53.8,30.19,WNW,298,1.0,2.0,95,0.00,,---,0.00,VWS V13.01,2013-07-30 06:47:00,
2013-07-30 02:52:00,55.3,53.9,30.19,WNW,298,0.0,2.0,95,0.00,,---,0.00,VWS V13.01,2013-07-30 06:52:00,
2013-07-30 02:57:00,55.3,53.9,30.19,WNW,298,0.0,2.0,95,0.00,,---,0.00,VWS V13.01,2013-07-30 06:57:00,
2013-07-30 03:02:00,55.3,53.9,30.19,WNW,298,0.0,0.0,95,0.00,,---,0.00,VWS V13.01,2013-07-30 07:02:00,
2013-07-30 03:08:00,55.4,54.0,30.19,WNW,298,0.0,0.0,95,0.00,,---,0.00,VWS V13.01,2013-07-30 07:08:00,
2013-07-30 03:13:00,55.4,54.0,30.19,WNW,298,0.0,0.0,95,0.00,,---,0.00,VWS V13.01,2013-07-30 07:13:00,
2013-07-30 03:18:00,55.4,54.0,30.18,WNW,298,0.0,0.0,95,0.00,,---,0.00,VWS V13.01,2013-07-30 07:18:00,
2013-07-30 03:23:00,55.5,54.1,30.18,WNW,298,0.0,0.0,95,0.00,,---,0.00,VWS V13.01,2013-07-30 07:23:00,
2013-07-30 03:28:00,55.5,54.1,30.18,WNW,298,0.0,0.0,95,0.00,,---,0.00,VWS V13.01,2013-07-30 07:28:00,
2013-07-30 03:33:00,55.4,54.0,30.18,WNW,298,0.0,0.0,95,0.00,,---,0.00,VWS V13.01,2013-07-30 07:33:00,
2013-07-30 03:38:00,55.3,53.6,30.18,WNW,298,0.0,0.0,94,0.00,,---,0.00,VWS V13.01,2013-07-30 07:38:00,
2013-07-30 03:43:00,55.1,53.4,30.18,WNW,298,0.0,0.0,94,0.00,,---,0.00,VWS V13.01,2013-07-30 07:43:00,
2013-07-30 03:48:00,55.0,53.3,30.18,WNW,298,0.0,0.0,94,0.00,,---,0.00,VWS V13.01,2013-07-30 07:48:00,
2013-07-30 03:53:00,54.9,53.2,30.18,WNW,298,0.0,0.0,94,0.00,,---,0.00,VWS V13.01,2013-07-30 07:53:00,
2013-07-30 03:58:00,54.8,53.1,30.18,WNW,298,0.0,1.0,94,0.00,,---,0.00,VWS V13.01,2013-07-30 07:58:00,
2013-07-30 04:03:00,54.6,52.9,30.18,WNW,298,0.0,0.0,94,0.00,,---,0.00,VWS V13.01,2013-07-30 08:03:00,
2013-07-30 04:08:00,54.5,52.8,30.18,WNW,298,0.0,0.0,94,0.00,,---,0.00,VWS V13.01,2013-07-30 08:08:00,
2013-07-30 04:13:00,54.3,52.6,30.18,WNW,298,0.0,0.0,94,0.00,,---,0.00,VWS V13.01,2013-07-30 08:13:00,
2013-07-30 04:18:00,54.2,52.5,30.18,WNW,298,0.0,0.0,94,0.00,,---,0.00,VWS V13.01,2013-07-30 08:18:00,
2013-07-30 04:23:00,54.0,52.3,30.18,WNW,298,0.0,0.0,94,0.00,,---,0.00,VWS V13.01,2013-07-30 08:23:00,
2013-07-30 04:28:00,53.9,52.2,30.19,WNW,298,0.0,1.0,94,0.00,,---,0.00,VWS V13.01,2013-07-30 08:28:00,
2013-07-30 04:33:00,53.7,52.0,30.19,WNW,298,0.0,0.0,94,0.00,,---,0.00,VWS V13.01,2013-07-30 08:33:00,
2013-07-30 04:38:00,53.5,51.8,30.19,WNW,298,0.0,0.0,94,0.00,,---,0.00,VWS V13.01,2013-07-30 08:38:00,
2013-07-30 04:43:00,53.4,51.7,30.19,WNW,298,0.0,0.0,94,0.00,,---,0.00,VWS V13.01,2013-07-30 08:43:00,
2013-07-30 04:48:00,53.2,51.5,30.19,WNW,298,0.0,0.0,94,0.00,,---,0.00,VWS V13.01,2013-07-30 08:48:00,
2013-07-30 04:53:00,53.1,51.4,30.19,WNW,298,0.0,0.0,94,0.00,,---,0.00,VWS V13.01,2013-07-30 08:53:00,
2013-07-30 04:58:00,53.0,51.3,30.18,WNW,298,0.0,0.0,94,0.00,,---,0.00,VWS V13.01,2013-07-30 08:58:00,
2013-07-30 05:03:00,52.9,51.2,30.19,WNW,298,0.0,0.0,94,0.00,,---,0.00,VWS V13.01,2013-07-30 09:03:00,
2013-07-30 05:08:00,52.8,51.1,30.19,WNW,298,0.0,0.0,94,0.00,,---,0.00,VWS V13.01,2013-07-30 09:08:00,
2013-07-30 05:13:00,52.8,51.4,30.19,WNW,298,0.0,0.0,95,0.00,,---,0.00,VWS V13.01,2013-07-30 09:13:00,
2013-07-30 05:18:00,52.7,51.3,30.19,WNW,298,0.0,0.0,95,0.00,,---,0.00,VWS V13.01,2013-07-30 09:18:00,
2013-07-30 05:23:00,52.6,51.2,30.19,WNW,298,0.0,0.0,95,0.00,,---,0.00,VWS V13.01,2013-07-30 09:23:00,
2013-07-30 05:28:00,52.5,51.1,30.19,WNW,298,0.0,0.0,95,0.00,,---,0.00,VWS V13.01,2013-07-30 09:28:00,
2013-07-30 05:33:00,52.4,51.0,30.19,WNW,298,0.0,0.0,95,0.00,,---,0.00,VWS V13.01,2013-07-30 09:33:00,
2013-07-30 05:38:00,52.3,50.9,30.20,WNW,298,0.0,0.0,95,0.00,,---,0.00,VWS V13.01,2013-07-30 09:38:00,
2013-07-30 05:43:00,52.2,50.8,30.20,WNW,298,0.0,0.0,95,0.00,,---,0.00,VWS V13.01,2013-07-30 09:43:00,
2013-07-30 05:48:00,52.1,50.7,30.20,WNW,298,0.0,0.0,95,0.00,,---,0.00,VWS V13.01,2013-07-30 09:48:00,
2013-07-30 05:53:00,52.0,50.6,30.20,WNW,298,0.0,0.0,95,0.00,,---,0.00,VWS V13.01,2013-07-30 09:53:00,
2013-07-30 05:58:00,51.9,50.5,30.20,WNW,298,0.0,0.0,95,0.00,,---,0.00,VWS V13.01,2013-07-30 09:58:00,
2013-07-30 06:03:00,51.8,50.4,30.20,WNW,298,0.0,0.0,95,0.00,,---,0.00,VWS V13.01,2013-07-30 10:03:00,
2013-07-30 06:08:00,51.9,50.5,30.20,WNW,298,0.0,0.0,95,0.00,,---,0.00,VWS V13.01,2013-07-30 10:08:00,
2013-07-30 06:13:00,51.9,50.5,30.20,WNW,298,0.0,0.0,95,0.00,,---,0.00,VWS V13.01,2013-07-30 10:13:00,
2013-07-30 06:18:00,51.9,50.5,30.21,WNW,298,0.0,0.0,95,0.00,,---,0.00,VWS V13.01,2013-07-30 10:18:00,
2013-07-30 06:23:00,51.9,50.5,30.20,WNW,298,0.0,1.0,95,0.00,,---,0.00,VWS V13.01,2013-07-30 10:23:00,
2013-07-30 06:28:00,52.0,50.6,30.21,WNW,298,0.0,1.0,95,0.00,,---,0.00,VWS V13.01,2013-07-30 10:28:00,
2013-07-30 06:33:00,52.1,51.0,30.21,WNW,298,0.0,0.0,96,0.00,,---,0.00,VWS V13.01,2013-07-30 10:33:00,
2013-07-30 06:38:00,52.1,51.0,30.21,WNW,298,0.0,0.0,96,0.00,,---,0.00,VWS V13.01,2013-07-30 10:38:00,
2013-07-30 06:43:00,52.1,51.0,30.22,WNW,298,0.0,0.0,96,0.00,,---,0.00,VWS V13.01,2013-07-30 10:43:00,
2013-07-30 06:48:00,52.1,51.0,30.21,WNW,298,0.0,0.0,96,0.00,,---,0.00,VWS V13.01,2013-07-30 10:48:00,
2013-07-30 06:53:00,52.2,51.1,30.21,WNW,298,0.0,0.0,96,0.00,,---,0.00,VWS V13.01,2013-07-30 10:53:00,
2013-07-30 06:58:00,52.4,51.3,30.21,WNW,298,0.0,0.0,96,0.00,,---,0.00,VWS V13.01,2013-07-30 10:58:00,
2013-07-30 07:03:00,52.6,51.5,30.22,WNW,298,0.0,0.0,96,0.00,,---,0.00,VWS V13.01,2013-07-30 11:03:00,
2013-07-30 07:08:00,52.9,51.8,30.21,WNW,298,1.0,1.0,96,0.00,,---,0.00,VWS V13.01,2013-07-30 11:08:00,
2013-07-30 07:13:00,53.6,52.8,30.21,WNW,296,1.0,2.0,97,0.00,,---,0.00,VWS V13.01,2013-07-30 11:13:00,
2013-07-30 07:18:00,54.2,53.4,30.21,WNW,296,0.0,2.0,97,0.00,,---,0.00,VWS V13.01,2013-07-30 11:18:00,
2013-07-30 07:23:00,54.7,53.9,30.21,WNW,296,0.0,1.0,97,0.00,,---,0.00,VWS V13.01,2013-07-30 11:23:00,
2013-07-30 07:28:00,55.1,54.3,30.22,WNW,296,0.0,1.0,97,0.00,,---,0.00,VWS V13.01,2013-07-30 11:28:00,
2013-07-30 07:33:00,55.3,54.5,30.21,WNW,296,1.0,1.0,97,0.00,,---,0.00,VWS V13.01,2013-07-30 11:33:00,
2013-07-30 07:38:00,55.8,55.0,30.21,WNW,296,0.0,1.0,97,0.00,,---,0.00,VWS V13.01,2013-07-30 11:38:00,
2013-07-30 07:43:00,56.3,55.5,30.22,WNW,296,0.0,1.0,97,0.00,,---,0.00,VWS V13.01,2013-07-30 11:43:00,
2013-07-30 07:48:00,56.7,55.6,30.22,WNW,296,0.0,1.0,96,0.00,,---,0.00,VWS V13.01,2013-07-30 11:48:00,
2013-07-30 07:53:00,57.0,55.9,30.22,WNW,296,1.0,2.0,96,0.00,,---,0.00,VWS V13.01,2013-07-30 11:53:00,
2013-07-30 07:58:00,57.4,56.0,30.22,WNW,296,1.0,2.0,95,0.00,,---,0.00,VWS V13.01,2013-07-30 11:58:00,
2013-07-30 08:03:00,57.6,55.9,30.22,WNW,296,1.0,1.0,94,0.00,,---,0.00,VWS V13.01,2013-07-30 12:03:00,
2013-07-30 08:08:00,57.9,55.9,30.22,South,184,0.0,2.0,93,0.00,,---,0.00,VWS V13.01,2013-07-30 12:08:00,
2013-07-30 08:13:00,58.2,56.2,30.22,South,184,1.0,1.0,93,0.00,,---,0.00,VWS V13.01,2013-07-30 12:13:00,
2013-07-30 08:18:00,58.6,56.3,30.23,South,184,0.0,1.0,92,0.00,,---,0.00,VWS V13.01,2013-07-30 12:18:00,
2013-07-30 08:23:00,59.1,56.8,30.22,South,184,0.0,0.0,92,0.00,,---,0.00,VWS V13.01,2013-07-30 12:23:00,
2013-07-30 08:28:00,59.4,56.8,30.22,South,184,0.0,1.0,91,0.00,,---,0.00,VWS V13.01,2013-07-30 12:28:00,
2013-07-30 08:33:00,59.8,56.6,30.22,South,184,0.0,0.0,89,0.00,,---,0.00,VWS V13.01,2013-07-30 12:33:00,
2013-07-30 08:38:00,60.2,56.6,30.22,South,184,0.0,1.0,88,0.00,,---,0.00,VWS V13.01,2013-07-30 12:38:00,
2013-07-30 08:43:00,60.6,57.0,30.23,South,184,0.0,1.0,88,0.00,,---,0.00,VWS V13.01,2013-07-30 12:43:00,
2013-07-30 08:48:00,61.1,57.2,30.23,South,184,1.0,1.0,87,0.00,,---,0.00,VWS V13.01,2013-07-30 12:48:00,
2013-07-30 08:53:00,61.5,57.6,30.23,South,184,0.0,1.0,87,0.00,,---,0.00,VWS V13.01,2013-07-30 12:53:00,
2013-07-30 08:58:00,62.0,57.8,30.23,South,184,0.0,1.0,86,0.00,,---,0.00,VWS V13.01,2013-07-30 12:58:00,
2013-07-30 09:03:00,62.4,58.2,30.23,WSW,244,0.0,2.0,86,0.00,,---,0.00,VWS V13.01,2013-07-30 13:03:00,
2013-07-30 09:08:00,63.1,58.5,30.23,WSW,238,1.0,3.0,85,0.00,,---,0.00,VWS V13.01,2013-07-30 13:08:00,
2013-07-30 09:13:00,63.9,59.3,30.23,SW,231,2.0,3.0,85,0.00,,---,0.00,VWS V13.01,2013-07-30 13:13:00,
2013-07-30 09:18:00,64.5,58.9,30.23,West,260,0.0,4.0,82,0.00,,---,0.00,VWS V13.01,2013-07-30 13:18:00,
2013-07-30 09:23:00,64.9,58.9,30.23,SW,229,2.0,4.0,81,0.00,,---,0.00,VWS V13.01,2013-07-30 13:23:00,
2013-07-30 09:28:00,65.4,58.7,30.23,WNW,284,0.0,4.0,79,0.00,,---,0.00,VWS V13.01,2013-07-30 13:28:00,
2013-07-30 09:33:00,65.8,58.8,30.23,WSW,242,0.0,3.0,78,0.00,,---,0.00,VWS V13.01,2013-07-30 13:33:00,
2013-07-30 09:38:00,66.4,59.0,30.23,West,263,2.0,3.0,77,0.00,,---,0.00,VWS V13.01,2013-07-30 13:38:00,
2013-07-30 09:43:00,66.8,58.3,30.22,SW,230,1.0,4.0,74,0.00,,---,0.00,VWS V13.01,2013-07-30 13:43:00,
2013-07-30 09:48:00,67.3,58.7,30.22,SW,230,0.0,4.0,74,0.00,,---,0.00,VWS V13.01,2013-07-30 13:48:00,
2013-07-30 09:53:00,68.0,59.4,30.22,South,186,1.0,3.0,74,0.00,,---,0.00,VWS V13.01,2013-07-30 13:53:00,
2013-07-30 09:58:00,68.9,59.5,30.22,SSE,163,0.0,3.0,72,0.00,,---,0.00,VWS V13.01,2013-07-30 13:58:00,
2013-07-30 10:03:00,69.6,59.4,30.22,SSE,154,2.0,3.0,70,0.00,,---,0.00,VWS V13.01,2013-07-30 14:03:00,
2013-07-30 10:08:00,69.9,59.3,30.22,West,263,0.0,3.0,69,0.00,,---,0.00,VWS V13.01,2013-07-30 14:08:00,
2013-07-30 10:13:00,70.1,59.5,30.22,SW,234,0.0,4.0,69,0.00,,---,0.00,VWS V13.01,2013-07-30 14:13:00,
2013-07-30 10:18:00,70.3,59.7,30.22,WSW,256,0.0,4.0,69,0.00,,---,0.00,VWS V13.01,2013-07-30 14:18:00,
2013-07-30 10:19:00,70.4,59.8,30.22,WSW,256,0.0,4.0,69,0.00,,---,0.00,VWS V13.01,2013-07-30 14:19:00,
2013-07-30 10:24:00,70.7,60.5,30.22,WNW,284,0.0,5.0,70,0.00,,---,0.00,VWS V13.01,2013-07-30 14:24:00,
2013-07-30 10:29:00,71.1,60.8,30.22,ENE,57,0.0,5.0,70,0.00,,---,0.00,VWS V13.01,2013-07-30 14:29:00,
2013-07-30 10:34:00,71.5,60.4,30.22,WSW,252,1.0,3.0,68,0.00,,---,0.00,VWS V13.01,2013-07-30 14:34:00,
2013-07-30 10:39:00,71.7,59.3,30.22,ESE,103,1.0,3.0,65,0.00,,---,0.00,VWS V13.01,2013-07-30 14:39:00,
2013-07-30 10:44:00,72.0,59.6,30.22,East,90,0.0,5.0,65,0.00,,---,0.00,VWS V13.01,2013-07-30 14:44:00,
2013-07-30 10:49:00,72.1,61.0,30.21,WSW,242,0.0,5.0,68,0.00,,---,0.00,VWS V13.01,2013-07-30 14:49:00,
2013-07-30 10:54:00,72.2,60.7,30.21,NW,313,2.0,4.0,67,0.00,,---,0.00,VWS V13.01,2013-07-30 14:54:00,
2013-07-30 10:59:00,71.4,59.0,30.21,NNW,335,1.0,5.0,65,0.00,,---,0.00,VWS V13.01,2013-07-30 14:59:00,
2013-07-30 11:04:00,71.1,59.6,30.21,NNW,335,0.0,2.0,67,0.00,,---,0.00,VWS V13.01,2013-07-30 15:04:00,
2013-07-30 11:09:00,71.3,59.4,30.21,WNW,294,0.0,4.0,66,0.00,,---,0.00,VWS V13.01,2013-07-30 15:09:00,
2013-07-30 11:14:00,71.4,59.9,30.21,WNW,287,1.0,5.0,67,0.00,,---,0.00,VWS V13.01,2013-07-30 15:14:00,
2013-07-30 11:19:00,71.1,59.6,30.21,WNW,286,2.0,5.0,67,0.00,,---,0.00,VWS V13.01,2013-07-30 15:19:00,
2013-07-30 11:24:00,71.5,60.8,30.21,SSE,160,1.0,2.0,69,0.00,,---,0.00,VWS V13.01,2013-07-30 15:24:00,
2013-07-30 11:29:00,71.9,60.8,30.21,West,278,3.0,4.0,68,0.00,,---,0.00,VWS V13.01,2013-07-30 15:29:00,
2013-07-30 11:34:00,71.9,58.6,30.21,SSW,201,2.0,5.0,63,0.00,,---,0.00,VWS V13.01,2013-07-30 15:34:00,
2013-07-30 11:39:00,72.0,59.6,30.21,SSW,201,0.0,5.0,65,0.00,,---,0.00,VWS V13.01,2013-07-30 15:39:00,
2013-07-30 11:44:00,72.2,60.7,30.21,NNW,330,1.0,3.0,67,0.00,,---,0.00,VWS V13.01,2013-07-30 15:44:00,
2013-07-30 11:49:00,72.4,59.1,30.21,NNW,345,0.0,3.0,63,0.00,,---,0.00,VWS V13.01,2013-07-30 15:49:00,
2013-07-30 11:54:00,72.6,60.2,30.21,West,277,0.0,4.0,65,0.00,,---,0.00,VWS V13.01,2013-07-30 15:54:00,
2013-07-30 11:59:00,73.1,58.9,30.21,SW,222,3.0,9.0,61,0.00,,---,0.00,VWS V13.01,2013-07-30 15:59:00,
2013-07-30 12:04:00,73.6,58.4,30.21,WSW,249,4.0,9.0,59,0.00,,---,0.00,VWS V13.01,2013-07-30 16:04:00,
2013-07-30 12:09:00,73.6,59.3,30.21,West,259,3.0,10.0,61,0.00,,---,0.00,VWS V13.01,2013-07-30 16:09:00,
2013-07-30 12:14:00,73.6,59.8,30.21,NW,309,2.0,6.0,62,0.00,,---,0.00,VWS V13.01,2013-07-30 16:14:00,
2013-07-30 12:19:00,73.4,59.6,30.20,North,5,0.0,7.0,62,0.00,,---,0.00,VWS V13.01,2013-07-30 16:19:00,
2013-07-30 12:24:00,73.2,59.4,30.20,NW,315,2.0,4.0,62,0.00,,---,0.00,VWS V13.01,2013-07-30 16:24:00,
2013-07-30 12:29:00,72.9,58.7,30.20,NNW,342,2.0,5.0,61,0.00,,---,0.00,VWS V13.01,2013-07-30 16:29:00,
2013-07-30 12:34:00,72.6,59.3,30.20,WNW,295,3.0,6.0,63,0.00,,---,0.00,VWS V13.01,2013-07-30 16:34:00,
2013-07-30 12:39:00,72.2,58.9,30.20,WSW,246,2.0,6.0,63,0.00,,---,0.00,VWS V13.01,2013-07-30 16:39:00,
2013-07-30 12:44:00,72.0,57.8,30.20,SSW,213,2.0,6.0,61,0.00,,---,0.00,VWS V13.01,2013-07-30 16:44:00,
2013-07-30 12:49:00,71.9,58.6,30.20,SW,232,7.0,8.0,63,0.00,,---,0.00,VWS V13.01,2013-07-30 16:49:00,
2013-07-30 12:54:00,72.0,59.2,30.20,SW,227,3.0,7.0,64,0.00,,---,0.00,VWS V13.01,2013-07-30 16:54:00,
2013-07-30 12:59:00,72.4,59.5,30.19,SW,218,1.0,7.0,64,0.00,,---,0.00,VWS V13.01,2013-07-30 16:59:00,
2013-07-30 13:04:00,73.2,59.4,30.19,SSW,207,3.0,8.0,62,0.00,,---,0.00,VWS V13.01,2013-07-30 17:04:00,
2013-07-30 13:09:00,74.0,59.2,30.19,SW,224,5.0,6.0,60,0.00,,---,0.00,VWS V13.01,2013-07-30 17:09:00,
2013-07-30 13:14:00,74.5,59.2,30.19,WSW,240,5.0,7.0,59,0.00,,---,0.00,VWS V13.01,2013-07-30 17:14:00,
2013-07-30 13:19:00,74.3,58.1,30.19,NNW,332,3.0,4.0,57,0.00,,---,0.00,VWS V13.01,2013-07-30 17:19:00,
2013-07-30 13:24:00,73.8,60.0,30.19,WNW,290,0.0,5.0,62,0.00,,---,0.00,VWS V13.01,2013-07-30 17:24:00,
2013-07-30 13:29:00,73.5,59.2,30.19,NNW,333,0.0,0.0,61,0.00,,---,0.00,VWS V13.01,2013-07-30 17:29:00,
2013-07-30 13:34:00,73.6,59.8,30.19,East,91,2.0,3.0,62,0.00,,---,0.00,VWS V13.01,2013-07-30 17:34:00,
2013-07-30 13:39:00,74.4,61.9,30.19,NW,313,0.0,1.0,65,0.00,,---,0.00,VWS V13.01,2013-07-30 17:39:00,
2013-07-30 13:44:00,74.7,59.9,30.19,West,271,1.0,4.0,60,0.00,,---,0.00,VWS V13.01,2013-07-30 17:44:00,
2013-07-30 13:49:00,74.6,59.8,30.18,SW,236,2.0,4.0,60,0.00,,---,0.00,VWS V13.01,2013-07-30 17:49:00,
2013-07-30 13:54:00,74.3,59.1,30.18,West,274,5.0,6.0,59,0.00,,---,0.00,VWS V13.01,2013-07-30 17:54:00,
2013-07-30 13:59:00,73.8,59.5,30.18,North,355,0.0,1.0,61,0.00,,---,0.00,VWS V13.01,2013-07-30 17:59:00,
2013-07-30 14:04:00,74.2,59.0,30.18,WNW,290,0.0,3.0,59,0.00,,---,0.00,VWS V13.01,2013-07-30 18:04:00,
2013-07-30 14:09:00,74.9,60.6,30.18,NW,313,3.0,3.0,61,0.00,,---,0.00,VWS V13.01,2013-07-30 18:09:00,
2013-07-30 14:14:00,74.9,58.2,30.18,WNW,300,6.0,8.0,56,0.00,,---,0.00,VWS V13.01,2013-07-30 18:14:00,
2013-07-30 14:19:00,74.3,57.6,30.18,NNW,344,2.0,3.0,56,0.00,,---,0.00,VWS V13.01,2013-07-30 18:19:00,
2013-07-30 14:24:00,74.0,59.2,30.18,WSW,251,0.0,4.0,60,0.00,,---,0.00,VWS V13.01,2013-07-30 18:24:00,
2013-07-30 14:29:00,74.1,59.8,30.18,SW,223,6.0,6.0,61,0.00,,---,0.00,VWS V13.01,2013-07-30 18:29:00,
2013-07-30 14:34:00,74.9,60.6,30.18,WNW,288,2.0,6.0,61,0.00,,---,0.00,VWS V13.01,2013-07-30 18:34:00,
2013-07-30 14:39:00,75.7,60.8,30.17,WSW,241,1.0,1.0,60,0.00,,---,0.00,VWS V13.01,2013-07-30 18:39:00,
2013-07-30 14:44:00,75.9,59.6,30.17,WNW,293,4.0,4.0,57,0.00,,---,0.00,VWS V13.01,2013-07-30 18:44:00,
2013-07-30 14:49:00,75.5,58.7,30.18,WSW,249,0.0,2.0,56,0.00,,---,0.00,VWS V13.01,2013-07-30 18:49:00,
2013-07-30 14:54:00,75.1,59.8,30.18,NNW,338,1.0,6.0,59,0.00,,---,0.00,VWS V13.01,2013-07-30 18:54:00,
2013-07-30 14:59:00,75.1,59.8,30.18,NW,313,4.0,4.0,59,0.00,,---,0.00,VWS V13.01,2013-07-30 18:59:00,
2013-07-30 15:04:00,75.5,60.7,30.18,SW,232,2.0,5.0,60,0.00,,---,0.00,VWS V13.01,2013-07-30 19:04:00,
2013-07-30 15:09:00,75.6,59.3,30.18,WSW,246,5.0,5.0,57,0.00,,---,0.00,VWS V13.01,2013-07-30 19:09:00,
2013-07-30 15:14:00,75.6,59.8,30.18,WSW,238,2.0,6.0,58,0.00,,---,0.00,VWS V13.01,2013-07-30 19:14:00,
2013-07-30 15:19:00,76.3,60.0,30.18,West,271,3.0,5.0,57,0.00,,---,0.00,VWS V13.01,2013-07-30 19:19:00,
2013-07-30 15:24:00,77.2,60.8,30.17,WNW,288,5.0,7.0,57,0.00,,---,0.00,VWS V13.01,2013-07-30 19:24:00,
2013-07-30 15:29:00,77.4,61.0,30.17,WNW,286,8.0,8.0,57,0.00,,---,0.00,VWS V13.01,2013-07-30 19:29:00,
2013-07-30 15:34:00,76.8,58.4,30.17,NW,321,4.0,8.0,53,0.00,,---,0.00,VWS V13.01,2013-07-30 19:34:00,
2013-07-30 15:39:00,76.8,59.4,30.17,NNW,338,0.0,1.0,55,0.00,,---,0.00,VWS V13.01,2013-07-30 19:39:00,
2013-07-30 15:40:00,76.8,59.4,30.17,NNW,338,0.0,1.0,55,0.00,,---,0.00,VWS V13.01,2013-07-30 19:40:00,
2013-07-30 15:45:00,77.1,60.7,30.17,North,360,3.0,8.0,57,0.00,,---,0.00,VWS V13.01,2013-07-30 19:45:00,
2013-07-30 15:50:00,77.4,60.0,30.17,North,355,5.0,5.0,55,0.00,,---,0.00,VWS V13.01,2013-07-30 19:50:00,
2013-07-30 15:55:00,77.3,59.9,30.17,WNW,292,1.0,6.0,55,0.00,,---,0.00,VWS V13.01,2013-07-30 19:55:00,
2013-07-30 16:00:00,76.7,58.8,30.17,West,273,0.0,1.0,54,0.00,,---,0.00,VWS V13.01,2013-07-30 20:00:00,
2013-07-30 16:05:00,76.4,60.5,30.17,NW,317,1.0,3.0,58,0.00,,---,0.00,VWS V13.01,2013-07-30 20:05:00,
2013-07-30 16:10:00,76.5,59.2,30.16,SW,217,4.0,4.0,55,0.00,,---,0.00,VWS V13.01,2013-07-30 20:10:00,
2013-07-30 16:15:00,76.4,59.1,30.16,West,260,0.0,6.0,55,0.00,,---,0.00,VWS V13.01,2013-07-30 20:15:00,
2013-07-30 16:19:00,76.1,58.8,30.16,WSW,253,3.0,4.0,55,0.00,,---,0.00,VWS V13.01,2013-07-30 20:19:00,
2013-07-30 16:24:00,75.9,59.6,30.16,West,266,2.0,5.0,57,0.00,,---,0.00,VWS V13.01,2013-07-30 20:24:00,
2013-07-30 16:30:00,76.4,59.1,30.16,SW,227,2.0,3.0,55,0.00,,---,0.00,VWS V13.01,2013-07-30 20:30:00,
2013-07-30 16:35:00,76.9,60.0,30.16,West,271,3.0,6.0,56,0.00,,---,0.00,VWS V13.01,2013-07-30 20:35:00,
2013-07-30 16:40:00,77.5,60.6,30.15,SW,224,6.0,6.0,56,0.00,,---,0.00,VWS V13.01,2013-07-30 20:40:00,
2013-07-30 16:45:00,77.8,58.8,30.15,SW,215,4.0,6.0,52,0.00,,---,0.00,VWS V13.01,2013-07-30 20:45:00,
2013-07-30 16:50:00,77.7,59.8,30.15,WSW,238,3.0,3.0,54,0.00,,---,0.00,VWS V13.01,2013-07-30 20:50:00,
2013-07-30 16:55:00,77.6,58.6,30.15,NNW,338,1.0,3.0,52,0.00,,---,0.00,VWS V13.01,2013-07-30 20:55:00,
2013-07-30 17:00:00,77.8,58.2,30.15,South,178,1.0,2.0,51,0.00,,---,0.00,VWS V13.01,2013-07-30 21:00:00,
2013-07-30 17:05:00,78.0,58.4,30.15,WNW,296,0.0,4.0,51,0.00,,---,0.00,VWS V13.01,2013-07-30 21:05:00,
2013-07-30 17:10:00,78.4,59.9,30.15,West,266,3.0,4.0,53,0.00,,---,0.00,VWS V13.01,2013-07-30 21:10:00,
2013-07-30 17:15:00,78.4,58.2,30.15,SSW,209,3.0,7.0,50,0.00,,---,0.00,VWS V13.01,2013-07-30 21:15:00,
2013-07-30 17:20:00,77.9,58.9,30.15,WSW,238,2.0,5.0,52,0.00,,---,0.00,VWS V13.01,2013-07-30 21:20:00,
2013-07-30 17:25:00,77.7,57.6,30.15,SW,229,3.0,8.0,50,0.00,,---,0.00,VWS V13.01,2013-07-30 21:25:00,
2013-07-30 17:30:00,77.6,58.6,30.15,WSW,248,1.0,3.0,52,0.00,,---,0.00,VWS V13.01,2013-07-30 21:30:00,
2013-07-30 17:35:00,77.7,59.8,30.15,WSW,248,2.0,5.0,54,0.00,,---,0.00,VWS V13.01,2013-07-30 21:35:00,
2013-07-30 17:40:00,77.9,59.4,30.15,WSW,241,0.0,3.0,53,0.00,,---,0.00,VWS V13.01,2013-07-30 21:40:00,
2013-07-30 17:45:00,78.2,60.7,30.15,NW,306,3.0,4.0,55,0.00,,---,0.00,VWS V13.01,2013-07-30 21:45:00,
2013-07-30 17:50:00,78.5,60.5,30.14,NW,322,3.0,3.0,54,0.00,,---,0.00,VWS V13.01,2013-07-30 21:50:00,
2013-07-30 17:55:00,78.2,58.6,30.15,SW,220,4.0,4.0,51,0.00,,---,0.00,VWS V13.01,2013-07-30 21:55:00,
2013-07-30 18:00:00,77.6,59.1,30.14,West,269,1.0,4.0,53,0.00,,---,0.00,VWS V13.01,2013-07-30 22:00:00,
2013-07-30 18:05:00,77.3,58.3,30.14,WNW,288,1.0,4.0,52,0.00,,---,0.00,VWS V13.01,2013-07-30 22:05:00,
2013-07-30 18:10:00,77.5,59.6,30.14,WSW,246,1.0,3.0,54,0.00,,---,0.00,VWS V13.01,2013-07-30 22:10:00,
2013-07-30 18:15:00,77.8,59.3,30.14,WSW,249,1.0,4.0,53,0.00,,---,0.00,VWS V13.01,2013-07-30 22:15:00,
2013-07-30 18:20:00,77.8,58.8,30.15,WNW,301,0.0,1.0,52,0.00,,---,0.00,VWS V13.01,2013-07-30 22:20:00,
2013-07-30 18:25:00,77.6,59.7,30.15,WNW,301,0.0,2.0,54,0.00,,---,0.00,VWS V13.01,2013-07-30 22:25:00,
2013-07-30 18:30:00,77.7,59.8,30.15,WNW,303,3.0,3.0,54,0.00,,---,0.00,VWS V13.01,2013-07-30 22:30:00,
2013-07-30 18:35:00,77.5,59.0,30.15,NW,309,1.0,4.0,53,0.00,,---,0.00,VWS V13.01,2013-07-30 22:35:00,
2013-07-30 18:40:00,77.2,59.8,30.15,WNW,301,2.0,3.0,55,0.00,,---,0.00,VWS V13.01,2013-07-30 22:40:00,
2013-07-30 18:45:00,77.0,59.1,30.15,West,270,2.0,3.0,54,0.00,,---,0.00,VWS V13.01,2013-07-30 22:45:00,
2013-07-30 18:50:00,76.8,59.4,30.15,West,262,0.0,2.0,55,0.00,,---,0.00,VWS V13.01,2013-07-30 22:50:00,
2013-07-30 18:55:00,76.7,58.8,30.15,WSW,257,0.0,3.0,54,0.00,,---,0.00,VWS V13.01,2013-07-30 22:55:00,
2013-07-30 19:00:00,76.7,59.8,30.15,West,263,2.0,2.0,56,0.00,,---,0.00,VWS V13.01,2013-07-30 23:00:00,
2013-07-30 19:05:00,76.8,58.4,30.15,West,261,0.0,3.0,53,0.00,,---,0.00,VWS V13.01,2013-07-30 23:05:00,
2013-07-30 19:10:00,76.7,58.3,30.14,SW,221,1.0,3.0,53,0.00,,---,0.00,VWS V13.01,2013-07-30 23:10:00,
2013-07-30 19:15:00,76.3,57.9,30.14,WSW,247,1.0,4.0,53,0.00,,---,0.00,VWS V13.01,2013-07-30 23:15:00,
2013-07-30 19:20:00,75.8,58.0,30.14,SW,232,0.0,1.0,54,0.00,,---,0.00,VWS V13.01,2013-07-30 23:20:00,
2013-07-30 19:25:00,75.3,58.0,30.14,WSW,243,2.0,3.0,55,0.00,,---,0.00,VWS V13.01,2013-07-30 23:25:00,
2013-07-30 19:30:00,75.0,58.3,30.14,WSW,244,1.0,2.0,56,0.00,,---,0.00,VWS V13.01,2013-07-30 23:30:00,
2013-07-30 19:35:00,74.7,58.0,30.14,WSW,248,1.0,3.0,56,0.00,,---,0.00,VWS V13.01,2013-07-30 23:35:00,
2013-07-30 19:40:00,74.4,57.7,30.14,WSW,248,0.0,1.0,56,0.00,,---,0.00,VWS V13.01,2013-07-30 23:40:00,
2013-07-30 19:45:00,74.3,59.1,30.14,WSW,248,0.0,1.0,59,0.00,,---,0.00,VWS V13.01,2013-07-30 23:45:00,
2013-07-30 19:50:00,74.1,59.3,30.14,WSW,248,0.0,1.0,60,0.00,,---,0.00,VWS V13.01,2013-07-30 23:50:00,
2013-07-30 19:55:00,73.8,60.4,30.14,WSW,248,1.0,1.0,63,0.00,,---,0.00,VWS V13.01,2013-07-30 23:55:00,
2013-07-30 20:00:00,73.3,60.4,30.14,SSW,193,0.0,1.0,64,0.00,,---,0.00,VWS V13.01,2013-07-31 00:00:00,
2013-07-30 20:05:00,72.9,60.5,30.14,SSW,193,0.0,1.0,65,0.00,,---,0.00,VWS V13.01,2013-07-31 00:05:00,
2013-07-30 20:10:00,72.5,60.1,30.14,SSW,193,0.0,0.0,65,0.00,,---,0.00,VWS V13.01,2013-07-31 00:10:00,
2013-07-30 20:15:00,72.1,60.1,30.14,SSW,193,0.0,1.0,66,0.00,,---,0.00,VWS V13.01,2013-07-31 00:15:00,
2013-07-30 20:20:00,71.8,60.7,30.14,SSW,193,0.0,0.0,68,0.00,,---,0.00,VWS V13.01,2013-07-31 00:20:00,
2013-07-30 20:25:00,71.3,60.6,30.14,SSW,193,0.0,0.0,69,0.00,,---,0.00,VWS V13.01,2013-07-31 00:25:00,
2013-07-30 20:30:00,70.9,60.6,30.14,SSW,193,0.0,0.0,70,0.00,,---,0.00,VWS V13.01,2013-07-31 00:30:00,
2013-07-30 20:35:00,70.4,60.6,30.14,SSW,193,0.0,0.0,71,0.00,,---,0.00,VWS V13.01,2013-07-31 00:35:00,
2013-07-30 20:40:00,70.0,60.2,30.14,SSW,193,0.0,0.0,71,0.00,,---,0.00,VWS V13.01,2013-07-31 00:40:00,
2013-07-30 20:45:00,69.5,60.1,30.14,SSW,193,0.0,0.0,72,0.00,,---,0.00,VWS V13.01,2013-07-31 00:45:00,
2013-07-30 20:50:00,69.1,60.5,30.14,SSW,193,0.0,0.0,74,0.00,,---,0.00,VWS V13.01,2013-07-31 00:50:00,
2013-07-30 20:55:00,68.6,60.0,30.14,SSW,193,0.0,0.0,74,0.00,,---,0.00,VWS V13.01,2013-07-31 00:55:00,
2013-07-30 21:00:00,68.2,60.3,30.14,SSW,193,0.0,0.0,76,0.00,,---,0.00,VWS V13.01,2013-07-31 01:00:00,
2013-07-30 21:05:00,67.8,60.3,30.14,SSW,193,0.0,0.0,77,0.00,,---,0.00,VWS V13.01,2013-07-31 01:05:00,
2013-07-30 21:10:00,67.4,60.3,30.14,SSW,193,0.0,0.0,78,0.00,,---,0.00,VWS V13.01,2013-07-31 01:10:00,
2013-07-30 21:15:00,67.0,59.9,30.14,SSW,193,0.0,0.0,78,0.00,,---,0.00,VWS V13.01,2013-07-31 01:15:00,
2013-07-30 21:20:00,66.6,59.9,30.14,SSW,193,0.0,0.0,79,0.00,,---,0.00,VWS V13.01,2013-07-31 01:20:00,
2013-07-30 21:25:00,66.3,59.6,30.14,SSW,193,0.0,1.0,79,0.00,,---,0.00,VWS V13.01,2013-07-31 01:25:00,
2013-07-30 21:30:00,66.1,59.4,30.14,SSW,193,0.0,1.0,79,0.00,,---,0.00,VWS V13.01,2013-07-31 01:30:00,
2013-07-30 21:35:00,65.8,59.5,30.14,SSW,193,0.0,1.0,80,0.00,,---,0.00,VWS V13.01,2013-07-31 01:35:00,
2013-07-30 21:40:00,65.6,59.6,30.14,SSW,193,1.0,2.0,81,0.00,,---,0.00,VWS V13.01,2013-07-31 01:40:00,
2013-07-30 21:45:00,65.3,59.3,30.14,SSW,193,0.0,2.0,81,0.00,,---,0.00,VWS V13.01,2013-07-31 01:45:00,
2013-07-30 21:50:00,65.0,59.0,30.14,SSW,193,0.0,1.0,81,0.00,,---,0.00,VWS V13.01,2013-07-31 01:50:00,
2013-07-30 21:55:00,64.8,58.8,30.15,SSW,193,0.0,1.0,81,0.00,,---,0.00,VWS V13.01,2013-07-31 01:55:00,
2013-07-30 22:00:00,64.5,58.9,30.15,SSW,193,0.0,1.0,82,0.00,,---,0.00,VWS V13.01,2013-07-31 02:00:00,
2013-07-30 22:05:00,64.2,58.6,30.15,SSW,193,0.0,1.0,82,0.00,,---,0.00,VWS V13.01,2013-07-31 02:05:00,
2013-07-30 22:10:00,64.0,58.4,30.14,SSW,193,0.0,0.0,82,0.00,,---,0.00,VWS V13.01,2013-07-31 02:10:00,
2013-07-30 22:15:00,63.7,58.5,30.15,SSW,193,0.0,0.0,83,0.00,,---,0.00,VWS V13.01,2013-07-31 02:15:00,
2013-07-30 22:20:00,63.5,58.6,30.15,SSW,193,0.0,0.0,84,0.00,,---,0.00,VWS V13.01,2013-07-31 02:20:00,
2013-07-30 22:25:00,63.3,58.7,30.14,SSW,193,0.0,0.0,85,0.00,,---,0.00,VWS V13.01,2013-07-31 02:25:00,
2013-07-30 22:30:00,63.1,58.5,30.14,SSW,193,0.0,0.0,85,0.00,,---,0.00,VWS V13.01,2013-07-31 02:30:00,
2013-07-30 22:35:00,62.8,58.2,30.15,SSW,193,0.0,0.0,85,0.00,,---,0.00,VWS V13.01,2013-07-31 02:35:00,
2013-07-30 22:40:00,62.6,58.0,30.15,SSW,193,0.0,0.0,85,0.00,,---,0.00,VWS V13.01,2013-07-31 02:40:00,
2013-07-30 22:45:00,62.4,58.2,30.14,SSW,193,0.0,0.0,86,0.00,,---,0.00,VWS V13.01,2013-07-31 02:45:00,
2013-07-30 22:50:00,62.2,58.3,30.15,SSW,193,0.0,0.0,87,0.00,,---,0.00,VWS V13.01,2013-07-31 02:50:00,
2013-07-30 22:55:00,62.0,58.1,30.15,SSW,193,0.0,0.0,87,0.00,,---,0.00,VWS V13.01,2013-07-31 02:55:00,
2013-07-30 23:00:00,61.8,57.9,30.14,SSW,193,0.0,0.0,87,0.00,,---,0.00,VWS V13.01,2013-07-31 03:00:00,
2013-07-30 23:05:00,61.7,57.8,30.14,SSW,193,0.0,0.0,87,0.00,,---,0.00,VWS V13.01,2013-07-31 03:05:00,
2013-07-30 23:10:00,61.5,57.9,30.14,SSW,193,0.0,0.0,88,0.00,,---,0.00,VWS V13.01,2013-07-31 03:10:00,
2013-07-30 23:15:00,61.3,57.7,30.14,SSW,193,0.0,0.0,88,0.00,,---,0.00,VWS V13.01,2013-07-31 03:15:00,
2013-07-30 23:20:00,61.2,57.6,30.14,SSW,193,0.0,0.0,88,0.00,,---,0.00,VWS V13.01,2013-07-31 03:20:00,
2013-07-30 23:25:00,61.0,57.7,30.14,SSW,193,0.0,0.0,89,0.00,,---,0.00,VWS V13.01,2013-07-31 03:25:00,
2013-07-30 23:30:00,60.9,57.6,30.14,SSW,193,0.0,0.0,89,0.00,,---,0.00,VWS V13.01,2013-07-31 03:30:00,
2013-07-30 23:35:00,60.8,57.5,30.14,SSW,193,0.0,0.0,89,0.00,,---,0.00,VWS V13.01,2013-07-31 03:35:00,
2013-07-30 23:40:00,60.6,57.3,30.14,SSW,193,0.0,0.0,89,0.00,,---,0.00,VWS V13.01,2013-07-31 03:40:00,
2013-07-30 23:45:00,60.4,57.5,30.14,SSW,193,0.0,0.0,90,0.00,,---,0.00,VWS V13.01,2013-07-31 03:45:00,
2013-07-30 23:50:00,60.4,57.5,30.14,SSW,193,0.0,0.0,90,0.00,,---,0.00,VWS V13.01,2013-07-31 03:50:00,
2013-07-30 23:55:00,60.2,57.3,30.14,SSW,193,0.0,0.0,90,0.00,,---,0.00,VWS V13.01,2013-07-31 03:55:00,